Regional Weather Roundup
Issued by NWS

Home | Current Version | Previous Version | Graphics & Text | Print | Product List | Glossary On
Versions: 1 2 3 4 5 6 7 8 9 10 11 12 13 14 15 16 17 18 19 20 21 22 23 24 25 26 27 28 29 30 31 32 33 34 35 36 37 38 39 40 41 42 43 44 45 46 47 48 49 50
000
ASUS43 KIND 201209
RWRIN

WEATHER ROUNDUP FOR INDIANA
NATIONAL WEATHER SERVICE INDIANAPOLIS IN
800 AM EDT SUN APR 20 2014

NOTE: "FAIR" INDICATES FEW OR NO CLOUDS BELOW 12,000 FEET WITH NO
SIGNIFICANT WEATHER AND/OR OBSTRUCTIONS TO VISIBILITY.

* - STATION DOES NOT REPORT WEATHER SUCH AS PRECIPITATION OR FOG.

+ - STATION NOT QUALITY CONTROLLED BY THE NATIONAL WEATHER SERVICE.
    USE DATA WITH CAUTION...ESPECIALLY DEWPOINT AND RELATIVE
    HUMIDITY OBSERVATIONS.

INZ001>003-010>013-019-020-201300-
NORTHWEST INDIANA

CITY           SKY/WX    TMP DP  RH WIND       PRES   REMARKS
GARY /AIRPORT/ PTCLDY    46  27  46 SE9       30.25R
LA PORTE +     MOSUNNY   38  31  78 CALM      30.26S
6HR MIN TEMP:  34; 6HR MAX TEMP:  43;

MICHIGAN CITY+ MOSUNNY   45  28  53 CALM      30.25S
MONTICELLO +   SUNNY     42  30  64 SE5       30.25S
RENSSELAER +   CLEAR     43  30  61 SE7       30.26R
VALPARAISO     MOSUNNY   38  29  70 E5        30.26R
6HR MIN TEMP:  35; 6HR MAX TEMP:  43;


$$

LMZ046-743>745-201300-
SOUTHERN LAKE MICHIGAN

STATION/POSITION TIME  TEMP WIND        PRES
                       AIR  DIR/SP/G
                 (UTC) (F)  (DEG/KT/KT) (MB)
MICHIGAN CITY    1200   46  130/ 13/ 17   N/A

$$

INZ004-005-014>016-021>024-201300-
NORTH CENTRAL INDIANA

CITY           SKY/WX    TMP DP  RH WIND       PRES   REMARKS
ELKHART        SUNNY     41  30  65 SE7       30.27
GOSHEN         MOSUNNY   42  32  67 SE7       30.28R
6HR MIN TEMP:  36; 6HR MAX TEMP:  44;

LOGANSPORT +   SUNNY     39  32  75 E6        30.28R
PERU/GRISSOM   SUNNY     40  34  79 E5        30.26R
6HR MIN TEMP:  37; 6HR MAX TEMP:  44;

ROCHESTER +    SUNNY     43  32  65 SE5       30.28R
SOUTH BEND     MOSUNNY   42  29  59 SE7       30.27S
6HR MIN TEMP:  40; 6HR MAX TEMP:  47;

WARSAW +       SUNNY     39  32  75 E5        30.28R

$$

INZ006>009-017-018-025>027-201300-
NORTHEAST INDIANA

CITY           SKY/WX    TMP DP  RH WIND       PRES   REMARKS
ANGOLA *+      SUNNY     39  32  75 SE5       30.29R
AUBURN +       MOSUNNY   36  32  87 E3        30.30R
FORT WAYNE     MOSUNNY   37  31  78 E5        30.30R
6HR MIN TEMP:  33; 6HR MAX TEMP:  40;


$$

INZ028-029-035-036-043>045-051>053-201300-
WEST CENTRAL INDIANA

CITY           SKY/WX    TMP DP  RH WIND       PRES   REMARKS
GREENCASTLE +  FAIR      45  36  70 E3        30.26S
LAFAYETTE      SUNNY     40  33  76 E6        30.26R
6HR MIN TEMP:  40; 6HR MAX TEMP:  47;

TERRE HAUTE    CLEAR     48  36  63 E3        30.25R
6HR MIN TEMP:  43; 6HR MAX TEMP:  51;


$$

INZ030>032-037>040-046>048-054>057-064-065-201300-
CENTRAL INDIANA

CITY           SKY/WX    TMP DP  RH WIND       PRES   REMARKS
CP ATTERBURY + SUNNY     37  36  93 CALM      30.27R
COLUMBUS       SUNNY     39  36  87 CALM      30.26S
INDIANAPOLIS   PTSUNNY   46  33  60 E3        30.26R
6HR MIN TEMP:  43; 6HR MAX TEMP:  50;

-EAGLE CREEK   SUNNY     43  32  65 CALM      30.26R
6HR MIN TEMP:  41; 6HR MAX TEMP:  49;

KOKOMO *+      SUNNY     39  30  70 SE7       30.27S
MARION +       MOSUNNY   38  30  74 E3        30.28R
MT COMFORT *+  SUNNY     46  36  66 E3        30.27R
SHELBYVILLE    SUNNY     46  35  65 E7        30.26R
6HR MIN TEMP:  43; 6HR MAX TEMP:  49;

ZIONSVILLE +   SUNNY     41  31  68 CALM      30.27R
6HR MIN TEMP:  39; 6HR MAX TEMP:  46;


$$

INZ033-034-041-042-049-050-058-059-201300-
EAST CENTRAL INDIANA

CITY           SKY/WX    TMP DP  RH WIND       PRES   REMARKS
MUNCIE         MOSUNNY   42  33  70 SE6       30.27R
6HR MIN TEMP:  35; 6HR MAX TEMP:  42;


$$

INZ060-061-067>069-081>083-085>088-201300-
SOUTHWEST INDIANA

CITY           SKY/WX    TMP DP  RH WIND       PRES   REMARKS
EVANSVILLE     CLEAR     49  42  77 CALM      30.24R
6HR MIN TEMP:  47; 6HR MAX TEMP:  58;

HUNTINGBURG *+ CLEAR     46  36  66 NE5       30.24S
6HR MIN TEMP:  45; 6HR MAX TEMP:  54;

WASHINGTON +   CLEAR     46  41  83 CALM      30.24R
6HR MIN TEMP:  44; 6HR MAX TEMP:  54;


$$

INZ062-063-066-070>080-084-089>092-201300-
SOUTH CENTRAL AND SOUTHEAST INDIANA

CITY           SKY/WX    TMP DP  RH WIND       PRES   REMARKS
BEDFORD +      SUNNY     45  34  65 N3        30.26
BLOOMINGTON    SUNNY     42  36  79 CALM      30.26R
6HR MIN TEMP:  39; 6HR MAX TEMP:  50;

NORTH VERNON + MOSUNNY   46  34  61 NE6       30.27

$$




USA.gov is the U.S. government's official web portal to all federal, state and local government web resources and services.